When you browse on this site, cookies collect data to enhance your experience and personalize the content and advertising you see.
Visit our Privacy Policy to learn more. By continuing to use the site, you agree to this use of cookies and data.
  • In Lithuania
  • List of Countries
  • For 7 days
  • Water Temperature
  • Weather Map
  • Weather Widgets
  • user-avatar
    Login

    Hourly Weather Bulgan

    Today, 30 March, Monday

    Time Temperature Precipitation Wind Pressure Humidity
    00:00 -6°C° 0.2 mm 2 mps 622 mmHg 78%
    01:00 -7°C° 0.2 mm 2 mps 623 mmHg 86%
    02:00 -7°C° 0.9 mm 2 mps 623 mmHg 88%
    03:00 -8°C° 0.9 mm 3 mps 623 mmHg 90%
    04:00 -10°C° 0.9 mm 4 mps 623 mmHg 91%
    05:00 -10°C° 0.3 mm 4 mps 624 mmHg 84%
    06:00 -11°C° 0.3 mm 4 mps 625 mmHg 76%
    07:00 -11°C° 0.3 mm 4 mps 625 mmHg 68%
    08:00 -11°C° 0 mm 5 mps 626 mmHg 62%
    09:00 -11°C° 0 mm 5 mps 627 mmHg 57%
    10:00 -10°C° 0 mm 6 mps 628 mmHg 51%
    11:00 -8°C° 0 mm 5 mps 628 mmHg 51%
    12:00 -8°C° 0 mm 4 mps 628 mmHg 51%
    13:00 -7°C° 0 mm 4 mps 629 mmHg 50%
    14:00 -6°C° 0.1 mm 3 mps 628 mmHg 52%
    15:00 -5°C° 0.1 mm 2 mps 628 mmHg 53%
    16:00 -5°C° 0.1 mm 2 mps 628 mmHg 54%
    17:00 -4°C° 0.3 mm 1 mps 628 mmHg 65%
    18:00 -6°C° 0.3 mm 1 mps 629 mmHg 76%
    19:00 -7°C° 0.3 mm 1 mps 629 mmHg 87%
    20:00 -8°C° 0 mm 1 mps 630 mmHg 85%
    21:00 -8°C° 0 mm 1 mps 630 mmHg 83%
    22:00 -9°C° 0 mm 1 mps 630 mmHg 81%
    23:00 -9°C° 0 mm 1 mps 630 mmHg 79%

    Tomorrow, 31 March, Tuesday

    Time Temperature Precipitation Wind Pressure Humidity
    00:00 -9°C° 0 mm 1 mps 631 mmHg 77%
    01:00 -10°C° 0 mm 1 mps 631 mmHg 75%
    02:00 -10°C° 0 mm 1 mps 631 mmHg 74%
    03:00 -10°C° 0 mm 1 mps 631 mmHg 73%
    04:00 -11°C° 0 mm 1 mps 631 mmHg 72%
    05:00 -10°C° 0 mm 1 mps 631 mmHg 69%
    06:00 -10°C° 0 mm 1 mps 632 mmHg 65%
    07:00 -10°C° 0 mm 1 mps 632 mmHg 62%
    08:00 -10°C° 0 mm 2 mps 632 mmHg 56%
    09:00 -9°C° 0 mm 3 mps 632 mmHg 50%
    10:00 -7°C° 0 mm 3 mps 633 mmHg 43%
    11:00 -7°C° 0 mm 4 mps 632 mmHg 42%
    12:00 -5°C° 0 mm 4 mps 632 mmHg 41%
    13:00 -5°C° 0 mm 5 mps 632 mmHg 39%
    14:00 -5°C° 0 mm 5 mps 632 mmHg 38%
    15:00 -3°C° 0 mm 4 mps 631 mmHg 37%
    16:00 -3°C° 0 mm 4 mps 631 mmHg 36%
    17:00 -4°C° 0 mm 3 mps 631 mmHg 40%
    18:00 -5°C° 0 mm 2 mps 630 mmHg 44%
    19:00 -4°C° 0 mm 1 mps 630 mmHg 48%
    20:00 -4°C° 0 mm 1 mps 630 mmHg 49%
    21:00 -6°C° 0 mm 1 mps 630 mmHg 49%
    22:00 -6°C° 0 mm 1 mps 630 mmHg 50%
    23:00 -6°C° 0 mm 1 mps 630 mmHg 50%

    Day after tomorrow, 1 April, Wednesday

    Time Temperature Precipitation Wind Pressure Humidity
    00:00 -6°C° 0 mm 1 mps 630 mmHg 51%
    01:00 -7°C° 0 mm 1 mps 630 mmHg 51%
    02:00 -7°C° 0 mm 1 mps 630 mmHg 52%
    03:00 -7°C° 0 mm 1 mps 630 mmHg 52%
    04:00 -7°C° 0 mm 1 mps 630 mmHg 52%
    05:00 -7°C° 0 mm 1 mps 630 mmHg 52%
    06:00 -6°C° 0 mm 1 mps 630 mmHg 51%
    07:00 -6°C° 0 mm 1 mps 631 mmHg 51%
    08:00 -3°C° 0 mm 1 mps 631 mmHg 45%
    09:00 -3°C° 0 mm 2 mps 631 mmHg 40%
    10:00 -2°C° 0 mm 2 mps 631 mmHg 35%
    11:00 +1°C° 0 mm 2 mps 631 mmHg 34%
    12:00 +2°C° 0 mm 2 mps 631 mmHg 33%
    13:00 +3°C° 0 mm 2 mps 631 mmHg 32%
    14:00 +3°C° 0 mm 2 mps 631 mmHg 32%
    15:00 +4°C° 0 mm 2 mps 630 mmHg 31%
    16:00 +4°C° 0 mm 2 mps 630 mmHg 31%
    17:00 +3°C° 0 mm 1 mps 630 mmHg 34%
    18:00 +2°C° 0 mm 1 mps 630 mmHg 37%
    19:00 0°C° 0 mm 1 mps 629 mmHg 40%
    20:00 0°C° 0 mm 1 mps 629 mmHg 40%
    21:00 -1°C° 0 mm 1 mps 630 mmHg 40%
    22:00 -1°C° 0 mm 1 mps 630 mmHg 40%
    23:00 -1°C° 0 mm 1 mps 630 mmHg 40%

    2 April, Thursday

    Time Temperature Precipitation Wind Pressure Humidity
    00:00 -1°C° 0 mm 1 mps 630 mmHg 41%
    01:00 -2°C° 0 mm 1 mps 630 mmHg 41%
    02:00 -2°C° 0 mm 1 mps 630 mmHg 41%
    03:00 -2°C° 0 mm 1 mps 630 mmHg 41%
    04:00 -2°C° 0 mm 1 mps 631 mmHg 41%
    05:00 -2°C° 0 mm 1 mps 631 mmHg 41%
    06:00 -2°C° 0 mm 1 mps 631 mmHg 41%
    07:00 -2°C° 0 mm 1 mps 632 mmHg 40%
    08:00 0°C° 0 mm 1 mps 632 mmHg 37%
    09:00 +2°C° 0 mm 1 mps 633 mmHg 33%
    10:00 +4°C° 0 mm 1 mps 633 mmHg 30%
    11:00 +5°C° 0 mm 1 mps 633 mmHg 27%
    12:00 +6°C° 0 mm 2 mps 633 mmHg 24%
    13:00 +7°C° 0 mm 2 mps 633 mmHg 21%
    14:00 +7°C° 0 mm 2 mps 632 mmHg 21%
    15:00 +7°C° 0 mm 2 mps 632 mmHg 21%
    16:00 +8°C° 0 mm 2 mps 632 mmHg 20%
    17:00 +7°C° 0 mm 1 mps 631 mmHg 23%
    18:00 +5°C° 0 mm 1 mps 631 mmHg 26%
    19:00 +3°C° 0 mm 1 mps 630 mmHg 29%
    20:00 +3°C° 0 mm 1 mps 630 mmHg 29%
    21:00 +2°C° 0 mm 1 mps 631 mmHg 30%
    22:00 +2°C° 0 mm 1 mps 631 mmHg 30%
    23:00 +2°C° 0 mm 1 mps 631 mmHg 31%

    3 April, Friday

    Time Temperature Precipitation Wind Pressure Humidity
    00:00 +1°C° 0 mm 1 mps 630 mmHg 31%
    01:00 +1°C° 0 mm 1 mps 630 mmHg 32%
    02:00 +1°C° 0 mm 1 mps 630 mmHg 32%
    03:00 +1°C° 0 mm 1 mps 630 mmHg 32%
    04:00 0°C° 0 mm 1 mps 630 mmHg 33%
    05:00 +1°C° 0 mm 1 mps 631 mmHg 33%
    06:00 +1°C° 0 mm 1 mps 631 mmHg 33%
    07:00 +1°C° 0 mm 1 mps 631 mmHg 33%
    08:00 +3°C° 0 mm 1 mps 631 mmHg 29%
    09:00 +6°C° 0 mm 1 mps 632 mmHg 25%
    10:00 +7°C° 0 mm 2 mps 632 mmHg 22%
    11:00 +8°C° 0 mm 2 mps 632 mmHg 19%
    12:00 +9°C° 0 mm 2 mps 632 mmHg 16%
    13:00 +10°C° 0 mm 3 mps 632 mmHg 14%
    14:00 +10°C° 0 mm 3 mps 631 mmHg 14%
    15:00 +11°C° 0 mm 3 mps 631 mmHg 14%
    16:00 +12°C° 0 mm 2 mps 631 mmHg 14%
    17:00 +9°C° 0 mm 2 mps 630 mmHg 17%
    18:00 +8°C° 0 mm 1 mps 630 mmHg 19%
    19:00 +6°C° 0 mm 1 mps 629 mmHg 22%
    20:00 +6°C° 0 mm 1 mps 629 mmHg 23%
    21:00 +5°C° 0 mm 1 mps 629 mmHg 24%
    22:00 +4°C° 0 mm 1 mps 629 mmHg 26%
    23:00 +4°C° 0 mm 1 mps 629 mmHg 27%

    4 April, Saturday

    Time Temperature Precipitation Wind Pressure Humidity
    00:00 +3°C° 0 mm 1 mps 629 mmHg 28%
    01:00 +3°C° 0 mm 1 mps 628 mmHg 30%
    02:00 +2°C° 0 mm 1 mps 628 mmHg 31%
    03:00 +2°C° 0 mm 1 mps 628 mmHg 31%
    04:00 +1°C° 0 mm 1 mps 628 mmHg 32%
    05:00 +1°C° 0 mm 1 mps 628 mmHg 32%
    06:00 +2°C° 0 mm 1 mps 629 mmHg 32%
    07:00 +2°C° 0 mm 1 mps 629 mmHg 31%
    08:00 +2°C° 0 mm 2 mps 629 mmHg 28%
    09:00 +4°C° 0 mm 2 mps 629 mmHg 24%
    10:00 +6°C° 0 mm 2 mps 629 mmHg 21%
    11:00 +7°C° 0 mm 3 mps 630 mmHg 20%
    12:00 +8°C° 0 mm 3 mps 630 mmHg 20%
    13:00 +8°C° 0 mm 4 mps 630 mmHg 19%
    14:00 +8°C° 0 mm 4 mps 629 mmHg 19%
    15:00 +8°C° 0 mm 4 mps 629 mmHg 18%
    16:00 +8°C° 0 mm 4 mps 629 mmHg 18%
    17:00 +8°C° 0 mm 3 mps 629 mmHg 22%
    18:00 +6°C° 0 mm 2 mps 629 mmHg 26%
    19:00 +5°C° 0 mm 2 mps 628 mmHg 30%
    20:00 +5°C° 0 mm 1 mps 629 mmHg 32%
    21:00 +4°C° 0 mm 1 mps 629 mmHg 33%
    22:00 +3°C° 0 mm 1 mps 629 mmHg 34%
    23:00 +3°C° 0 mm 1 mps 629 mmHg 34%
    Show more